#timestamp,LO_Frequency,Hit,StdDev 
1558303215.7,286047002.4,N
1558303235.6,286047000.5,N
1558303255.4,286046999.7,N
1558303275.2,286046999.2,N
1558303295.1,286046995.6,N
1558303296.0,286046995.6,N
1558303315.8,286046994.1,N
1558303335.7,286046992.6,N
1558303355.5,286046991.9,N
1558303375.3,286046995.3,N
1558303395.2,286046996.6,N
1558303415.0,286046996.7,N
1558303415.9,286046996.7,N
1558303435.7,286046995.0,N
1558303455.6,286046995.3,N
1558303475.4,286046995.3,N
1558303495.3,286046999.6,N
1558303515.1,286046997.9,N
1558303516.0,286046997.9,N
1558303535.8,286046998.7,N
1558303555.7,286046999.3,N
1558303575.5,286046999.1,N
1558303595.3,286046997.0,N
1558303615.2,286046997.6,N
1558303635.0,286046999.1,N
1558303635.9,286046999.1,N
1558303655.8,286046999.0,N
1558303675.6,286046999.5,N
1558303695.4,286046997.4,N
1558303715.3,286046995.3,N
1558303735.1,286046995.1,N
1558303755.8,286046998.7,N
1558303775.7,286046996.8,N
1558303795.5,286046999.5,N
1558303815.4,286046998.2,N
1558303835.2,286047000.7,N
1558303855.0,286047001.6,N
1558303855.9,286047001.6,N
1558303875.8,286046999.7,N
1558303895.6,286047000.4,N
1558303915.4,286046998.5,N
1558303935.3,286047000.2,N
1558303955.1,286047002.2,N
1558303975.9,286047002.3,N
1558303995.7,286047002.0,N
1558304015.5,286047001.4,N
1558304035.4,286047002.1,N
1558304085.2,286047000.1,E
1558304095.2,286047000.5,N
1558304115.9,286047001.6,P
1558304135.7,286046998.2,P
1558304155.6,286047000.6,N
1558304175.4,286047000.6,N
1558304195.3,286047001.1,N
1558304215.1,286046998.4,N
1558304216.0,286046998.4,N
1558304235.8,286047000.5,N
1558304255.7,286047000.5,N
1558304275.5,286047001.1,N
1558304295.3,286047000.9,N
1558304315.2,286046998.7,N
1558304335.0,286046997.9,N
1558304335.9,286046997.9,N
1558304355.8,286047000.7,N
1558304375.6,286047000.9,N
1558304395.4,286046998.9,N
1558304415.3,286047000.5,N
1558304435.1,286047001.0,N
1558304455.8,286046999.8,N
1558304475.7,286047001.0,N
1558304495.5,286047001.1,N
1558304515.3,286047000.8,N
1558304535.2,286046999.7,N
1558304555.0,286047003.8,Y
1558304555.9,286047003.8,P
1558304575.8,286047000.0,N
1558304595.6,286047000.0,N
1558304615.4,286047001.2,N
1558304635.3,286047000.4,N
1558304655.1,286047002.1,N
1558304675.9,286047005.8,Y
1558304695.7,286047002.3,P
1558304715.5,286047002.5,P
1558304735.4,286047004.0,P
1558304755.2,286047001.6,N
1558304775.0,286047001.6,N
1558304775.9,286047001.6,N
1558304795.8,286046999.7,N
1558304815.6,286046999.8,N
1558304835.5,286047002.8,N
1558304855.3,286047004.3,Y
1558304875.1,286047002.1,P
1558304895.9,286046998.2,P
1558304915.7,286046998.8,N
1558304935.6,286046995.2,N
1558304955.4,286046995.7,N
1558304975.2,286046997.4,N
1558304995.1,286046997.8,N
1558304996.0,286046997.8,N
1558305015.8,286046997.8,N
1558305035.6,286046998.7,N
1558305055.5,286047000.4,N
1558305075.3,286047000.8,N
1558305095.2,286046999.6,N
1558305115.0,286047000.8,N
1558305115.9,286047000.8,N
1558305135.8,286046998.6,N
1558305155.6,286047000.2,N
1558305175.4,286047000.7,N
1558305195.3,286046997.8,N
1558305215.1,286046997.7,N
1558305235.8,286046996.5,N
1558305255.7,286046998.6,N
1558305275.5,286047001.0,N
1558305295.4,286046998.1,N
1558305315.2,286047000.7,N
1558305335.0,286047001.1,N
1558305335.9,286047001.1,N
1558305355.8,286046999.9,N
1558305375.6,286046996.8,N
1558305395.4,286046997.2,N
1558305415.3,286046997.1,N
1558305435.1,286046999.5,N
1558305455.9,286046996.9,N
1558305475.7,286046996.5,N
1558305495.5,286046996.2,N
1558305515.4,286046997.1,N
1558305535.2,286046999.4,N
1558305555.0,286046999.4,N
1558305555.9,286046999.4,N
1558305575.8,286046996.8,N
1558305595.6,286047000.4,N
1558305615.4,286046999.9,N
1558305635.3,286047002.6,N
1558305655.1,286047000.3,N
1558305675.9,286047001.6,N
1558305695.7,286047002.7,N
1558305715.5,286047003.8,N
1558305735.4,286047002.4,N
1558305755.2,286047000.6,N
1558305775.1,286047004.4,N
1558305776.0,286047004.4,N
1558305795.8,286047000.7,N
1558305815.6,286046999.8,N
1558305835.5,286047000.0,N
1558305855.3,286046998.2,N
1558305875.1,286046996.9,N
1558305895.9,286047001.1,N
1558305915.7,286046999.5,N
1558305935.6,286047001.6,N
1558305955.4,286047005.8,N
1558305975.2,286047005.8,N
1558305995.1,286046999.7,N
1558305996.0,286046999.7,N
1558306015.8,286046998.9,N
1558306035.6,286046999.2,N
1558306055.5,286046999.2,N
1558306075.3,286046999.4,N
1558306095.2,286046996.9,N
1558306115.9,286046999.6,N
1558306135.7,286047001.0,N
1558306155.6,286046999.4,N
1558306175.4,286046998.7,N
1558306195.2,286047001.0,N
1558306215.1,286047001.9,N
1558306216.0,286047001.9,N
1558306235.8,286047000.3,N
1558306255.7,286047002.7,N
1558306275.5,286047000.8,N
1558306295.3,286047001.8,N
1558306315.2,286047004.4,N
1558306335.9,286047003.6,N
1558306355.7,286047003.6,N
1558306375.6,286047005.6,N
1558306395.4,286047005.2,N
1558306415.3,286047005.9,N
1558306435.1,286047005.6,N
1558306436.0,286047005.6,N
1558306455.8,286047003.9,N
1558306475.7,286047003.8,N
1558306495.5,286047001.8,N
1558306515.3,286047001.4,N
1558306535.2,286047003.2,N
1558306555.0,286047005.6,N
1558306555.9,286047005.6,N
1558306575.8,286047002.2,N
1558306595.6,286047001.3,N
1558306615.4,286047001.7,N
1558306635.3,286047003.6,N
1558306655.1,286047001.5,N
1558306675.8,286047002.3,N
1558306695.7,286047001.9,N
1558306715.5,286047004.3,N
1558306735.7,286047002.8,N
1558306755.5,286047001.9,N
1558306775.4,286047001.6,N
1558306795.2,286047003.1,N
